Location: Newark
(45.1167°N, 7.8833°E)
Time: 13:13:35
(UTC+00:00)

N. Korean satellite - Visible Passes

Search period start: 23 September 2019 00:00
Search period end: 03 October 2019 00:00
Orbit: 455 x 509 km, 97.2° (Epoch: 22 September)

Date Brightness Start Highest point End Pass type
(mag) Time Alt. Az. Time Alt. Az. Time Alt. Az.
25 Sep 10.0 04:28:26 10° ENE 04:30:15 14° E 04:32:02 10° ESE visible
26 Sep 10.5 17:48:19 10° WSW 17:49:32 11° W 17:50:46 10° WNW visible
28 Sep 9.5 04:45:18 10° NE 04:48:03 22° E 04:50:48 10° SSE visible
29 Sep 10.3 04:21:30 10° ENE 04:22:37 11° E 04:23:43 10° ESE visible
30 Sep 10.2 17:40:03 10° SW 17:41:54 14° W 17:43:46 10° WNW visible
02 Oct 9.8 04:37:56 10° NE 04:40:25 18° E 04:42:55 10° SE visible
